Time,TemperatureF,DewpointF,PressureIn,WindDirection,WindDirectionDegrees,WindSpeedMPH,WindSpeedGustMPH,Humidity,HourlyPrecipIn,Conditions,Clouds,dailyrainin,SoftwareType,DateUTC
2013-01-15 00:00:00,28.9,17.6,28.53,North,0,4.0,9.0,62,0.00,,,0.14,meteohub,2013-01-15 05:00:00,
2013-01-15 00:01:00,28.9,17.6,28.53,North,0,4.0,9.0,62,0.00,,,0.14,meteohub,2013-01-15 05:01:00,
2013-01-15 00:02:00,28.9,17.6,28.53,North,0,4.0,9.0,62,0.00,,,0.14,meteohub,2013-01-15 05:02:00,
2013-01-15 00:05:00,28.9,17.6,28.55,North,0,9.0,9.0,62,0.00,,,0.00,meteohub,2013-01-15 05:05:00,
2013-01-15 00:10:00,29.1,17.8,28.55,North,0,14.0,14.0,62,0.00,,,0.00,meteohub,2013-01-15 05:10:00,
2013-01-15 00:15:00,29.1,17.8,28.55,North,0,13.0,14.0,62,0.00,,,0.00,meteohub,2013-01-15 05:15:00,
2013-01-15 00:20:00,29.1,17.8,28.55,North,0,10.0,14.0,62,0.00,,,0.00,meteohub,2013-01-15 05:20:00,
2013-01-15 00:25:00,29.1,17.8,28.55,North,0,9.0,14.0,62,0.00,,,0.00,meteohub,2013-01-15 05:25:00,
2013-01-15 00:30:00,28.9,18.0,28.55,NW,315,9.0,14.0,63,0.00,,,0.00,meteohub,2013-01-15 05:30:00,
2013-01-15 00:35:00,28.9,18.0,28.54,North,0,9.0,12.0,63,0.00,,,0.00,meteohub,2013-01-15 05:35:00,
2013-01-15 00:40:00,28.9,18.0,28.53,North,0,10.0,12.0,63,0.00,,,0.00,meteohub,2013-01-15 05:40:00,
2013-01-15 00:45:00,28.9,18.0,28.55,North,0,4.0,11.0,63,0.00,,,0.00,meteohub,2013-01-15 05:45:00,
2013-01-15 00:51:00,28.9,18.0,28.53,NW,315,6.0,10.0,63,0.00,,,0.00,meteohub,2013-01-15 05:51:00,
2013-01-15 00:56:00,28.8,17.8,28.54,North,0,4.0,10.0,63,0.00,,,0.00,meteohub,2013-01-15 05:56:00,
2013-01-15 01:02:00,28.8,17.8,28.51,West,270,5.0,10.0,63,0.00,,,0.00,meteohub,2013-01-15 06:02:00,
2013-01-15 01:07:00,28.8,17.8,28.51,North,0,5.0,10.0,63,0.00,,,0.00,meteohub,2013-01-15 06:07:00,
2013-01-15 01:12:00,28.8,17.8,28.51,North,0,5.0,8.0,63,0.00,,,0.00,meteohub,2013-01-15 06:12:00,
2013-01-15 01:17:00,28.6,17.6,28.50,North,0,5.0,6.0,63,0.00,,,0.00,meteohub,2013-01-15 06:17:00,
2013-01-15 01:22:00,28.6,17.6,28.51,NE,45,4.0,6.0,63,0.00,,,0.00,meteohub,2013-01-15 06:22:00,
2013-01-15 01:27:00,28.6,17.6,28.52,North,0,8.0,8.0,63,0.00,,,0.00,meteohub,2013-01-15 06:27:00,
2013-01-15 01:33:00,28.6,18.0,28.53,North,0,8.0,9.0,64,0.00,,,0.00,meteohub,2013-01-15 06:33:00,
2013-01-15 01:38:00,28.6,18.0,28.52,NW,315,6.0,9.0,64,0.00,,,0.00,meteohub,2013-01-15 06:38:00,
2013-01-15 01:43:00,28.6,18.0,28.51,NNE,23,4.0,9.0,64,0.00,,,0.00,meteohub,2013-01-15 06:43:00,
2013-01-15 01:48:00,28.4,17.8,28.52,North,0,3.0,8.0,64,0.00,,,0.00,meteohub,2013-01-15 06:48:00,
2013-01-15 01:53:00,28.4,17.8,28.52,North,0,8.0,8.0,64,0.00,,,0.00,meteohub,2013-01-15 06:53:00,
2013-01-15 01:58:00,28.4,17.8,28.53,North,0,6.0,8.0,64,0.00,,,0.00,meteohub,2013-01-15 06:58:00,
2013-01-15 02:03:00,28.4,17.8,28.53,NW,315,7.0,12.0,64,0.00,,,0.00,meteohub,2013-01-15 07:03:00,
2013-01-15 02:08:00,28.4,17.8,28.51,North,0,8.0,12.0,64,0.00,,,0.00,meteohub,2013-01-15 07:08:00,
2013-01-15 02:13:00,28.4,17.8,28.50,North,0,4.0,12.0,64,0.00,,,0.00,meteohub,2013-01-15 07:13:00,
2013-01-15 02:18:00,28.4,17.8,28.51,North,0,7.0,11.0,64,0.00,,,0.00,meteohub,2013-01-15 07:18:00,
2013-01-15 02:24:00,28.4,17.8,28.50,North,0,8.0,8.0,64,0.00,,,0.00,meteohub,2013-01-15 07:24:00,
2013-01-15 02:29:00,28.2,16.2,28.51,North,0,11.0,11.0,60,0.00,,,0.00,meteohub,2013-01-15 07:29:00,
2013-01-15 02:34:00,28.2,16.2,28.51,North,0,5.0,11.0,60,0.00,,,0.00,meteohub,2013-01-15 07:34:00,
2013-01-15 02:39:00,28.2,16.2,28.51,North,0,8.0,11.0,60,0.00,,,0.00,meteohub,2013-01-15 07:39:00,
2013-01-15 02:44:00,28.2,15.8,28.49,North,0,8.0,11.0,59,0.00,,,0.00,meteohub,2013-01-15 07:44:00,
2013-01-15 02:49:00,28.2,15.8,28.49,NW,315,5.0,11.0,59,0.00,,,0.00,meteohub,2013-01-15 07:49:00,
2013-01-15 02:54:00,28.2,15.8,28.50,North,0,4.0,11.0,59,0.00,,,0.00,meteohub,2013-01-15 07:54:00,
2013-01-15 03:00:00,28.0,15.6,28.49,NW,315,9.0,11.0,59,0.00,,,0.00,meteohub,2013-01-15 08:00:00,
2013-01-15 03:05:00,28.0,15.3,28.50,NW,315,6.0,9.0,58,0.00,,,0.00,meteohub,2013-01-15 08:05:00,
2013-01-15 03:10:00,27.9,15.1,28.50,North,0,8.0,9.0,58,0.00,,,0.00,meteohub,2013-01-15 08:10:00,
2013-01-15 03:15:00,27.9,15.1,28.50,NW,315,5.0,10.0,58,0.00,,,0.00,meteohub,2013-01-15 08:15:00,
2013-01-15 03:20:00,27.9,15.1,28.50,North,0,6.0,10.0,58,0.00,,,0.00,meteohub,2013-01-15 08:20:00,
2013-01-15 03:25:00,27.9,15.1,28.50,North,0,5.0,10.0,58,0.00,,,0.00,meteohub,2013-01-15 08:25:00,
2013-01-15 03:30:00,27.7,14.9,28.51,North,0,6.0,8.0,58,0.00,,,0.00,meteohub,2013-01-15 08:30:00,
2013-01-15 03:35:00,27.7,14.9,28.50,NW,315,9.0,9.0,58,0.00,,,0.00,meteohub,2013-01-15 08:35:00,
2013-01-15 03:41:00,27.5,14.7,28.50,North,0,8.0,11.0,58,0.00,,,0.00,meteohub,2013-01-15 08:41:00,
2013-01-15 03:46:00,27.3,14.9,28.49,North,0,8.0,11.0,59,0.00,,,0.00,meteohub,2013-01-15 08:46:00,
2013-01-15 03:51:00,27.1,14.7,28.49,North,0,4.0,11.0,59,0.00,,,0.00,meteohub,2013-01-15 08:51:00,
2013-01-15 03:56:00,27.1,14.7,28.49,North,0,8.0,10.0,59,0.00,,,0.00,meteohub,2013-01-15 08:56:00,
2013-01-15 04:01:00,27.0,14.5,28.49,NW,315,5.0,9.0,59,0.00,,,0.00,meteohub,2013-01-15 09:01:00,
2013-01-15 04:06:00,26.8,14.4,28.49,North,0,5.0,8.0,59,0.00,,,0.00,meteohub,2013-01-15 09:06:00,
2013-01-15 04:11:00,26.6,14.5,28.49,North,0,7.0,8.0,60,0.00,,,0.00,meteohub,2013-01-15 09:11:00,
2013-01-15 04:16:00,26.6,14.5,28.48,North,0,7.0,8.0,60,0.00,,,0.00,meteohub,2013-01-15 09:16:00,
2013-01-15 04:22:00,26.6,14.5,28.48,NW,315,4.0,11.0,60,0.00,,,0.00,meteohub,2013-01-15 09:22:00,
2013-01-15 04:27:00,26.4,14.7,28.48,North,0,6.0,11.0,61,0.00,,,0.00,meteohub,2013-01-15 09:27:00,
2013-01-15 04:32:00,26.2,15.1,28.47,North,0,7.0,11.0,62,0.00,,,0.00,meteohub,2013-01-15 09:32:00,
2013-01-15 04:37:00,26.1,14.9,28.47,NW,315,4.0,7.0,62,0.00,,,0.00,meteohub,2013-01-15 09:37:00,
2013-01-15 04:42:00,26.1,14.9,28.48,North,0,6.0,8.0,62,0.00,,,0.00,meteohub,2013-01-15 09:42:00,
2013-01-15 04:47:00,25.9,15.1,28.48,North,0,6.0,8.0,63,0.00,,,0.00,meteohub,2013-01-15 09:47:00,
2013-01-15 04:52:00,25.9,15.1,28.49,NW,315,7.0,8.0,63,0.00,,,0.00,meteohub,2013-01-15 09:52:00,
2013-01-15 04:57:00,25.9,15.1,28.49,North,0,12.0,14.0,63,0.00,,,0.00,meteohub,2013-01-15 09:57:00,
2013-01-15 05:02:00,26.1,15.3,28.50,NW,315,8.0,14.0,63,0.00,,,0.00,meteohub,2013-01-15 10:02:00,
2013-01-15 05:07:00,26.2,15.4,28.50,North,0,11.0,14.0,63,0.00,,,0.00,meteohub,2013-01-15 10:07:00,
2013-01-15 05:12:00,26.4,15.1,28.50,North,0,9.0,14.0,62,0.00,,,0.00,meteohub,2013-01-15 10:12:00,
2013-01-15 05:17:00,26.4,15.1,28.51,North,0,8.0,11.0,62,0.00,,,0.00,meteohub,2013-01-15 10:17:00,
2013-01-15 05:22:00,26.6,14.9,28.51,WNW,293,12.0,12.0,61,0.00,,,0.00,meteohub,2013-01-15 10:22:00,
2013-01-15 05:27:00,26.6,14.9,28.51,NNW,338,10.0,12.0,61,0.00,,,0.00,meteohub,2013-01-15 10:27:00,
2013-01-15 05:32:00,26.6,14.9,28.51,North,0,8.0,12.0,61,0.00,,,0.00,meteohub,2013-01-15 10:32:00,
2013-01-15 05:37:00,26.6,14.9,28.51,NW,315,6.0,12.0,61,0.00,,,0.00,meteohub,2013-01-15 10:37:00,
2013-01-15 05:42:00,26.6,14.5,28.51,NW,315,4.0,14.0,60,0.00,,,0.00,meteohub,2013-01-15 10:42:00,
2013-01-15 05:47:00,26.8,14.7,28.51,NW,315,9.0,14.0,60,0.00,,,0.00,meteohub,2013-01-15 10:47:00,
2013-01-15 05:52:00,26.8,14.7,28.51,North,0,7.0,14.0,60,0.00,,,0.00,meteohub,2013-01-15 10:52:00,
2013-01-15 05:57:00,26.8,14.7,28.51,North,0,8.0,10.0,60,0.00,,,0.00,meteohub,2013-01-15 10:57:00,
2013-01-15 06:02:00,26.8,14.7,28.52,West,270,5.0,9.0,60,0.00,,,0.00,meteohub,2013-01-15 11:02:00,
2013-01-15 06:07:00,27.0,14.9,28.53,North,0,10.0,10.0,60,0.00,,,0.00,meteohub,2013-01-15 11:07:00,
2013-01-15 06:12:00,27.0,14.5,28.53,North,0,11.0,11.0,59,0.00,,,0.00,meteohub,2013-01-15 11:12:00,
2013-01-15 06:18:00,27.0,14.5,28.53,West,270,6.0,11.0,59,0.00,,,0.00,meteohub,2013-01-15 11:18:00,
2013-01-15 06:23:00,27.0,14.5,28.53,North,0,11.0,11.0,59,0.00,,,0.00,meteohub,2013-01-15 11:23:00,
2013-01-15 06:28:00,27.0,14.5,28.53,North,0,7.0,11.0,59,0.00,,,0.00,meteohub,2013-01-15 11:28:00,
2013-01-15 06:33:00,27.0,14.5,28.53,NW,315,4.0,11.0,59,0.00,,,0.00,meteohub,2013-01-15 11:33:00,
2013-01-15 06:38:00,27.0,14.5,28.53,North,0,8.0,11.0,59,0.00,,,0.00,meteohub,2013-01-15 11:38:00,
2013-01-15 06:43:00,27.0,14.5,28.53,NW,315,8.0,12.0,59,0.00,,,0.00,meteohub,2013-01-15 11:43:00,
2013-01-15 06:48:00,27.0,14.5,28.53,NW,315,9.0,12.0,59,0.00,,,0.00,meteohub,2013-01-15 11:48:00,
2013-01-15 06:53:00,27.0,14.5,28.53,North,0,6.0,12.0,59,0.00,,,0.00,meteohub,2013-01-15 11:53:00,
2013-01-15 06:59:00,27.0,14.2,28.53,NW,315,4.0,11.0,58,0.00,,,0.00,meteohub,2013-01-15 11:59:00,
2013-01-15 07:04:00,27.0,14.2,28.53,NNW,338,5.0,11.0,58,0.00,,,0.00,meteohub,2013-01-15 12:04:00,
2013-01-15 07:09:00,27.0,14.2,28.53,NW,315,4.0,11.0,58,0.00,,,0.00,meteohub,2013-01-15 12:09:00,
2013-01-15 07:14:00,27.0,14.2,28.54,North,0,9.0,9.0,58,0.00,,,0.00,meteohub,2013-01-15 12:14:00,
2013-01-15 07:19:00,27.0,14.2,28.53,NW,315,6.0,9.0,58,0.00,,,0.00,meteohub,2013-01-15 12:19:00,
2013-01-15 07:24:00,27.0,14.2,28.53,WNW,293,11.0,11.0,58,0.00,,,0.00,meteohub,2013-01-15 12:24:00,
2013-01-15 07:29:00,27.0,13.8,28.53,North,0,10.0,11.0,57,0.00,,,0.00,meteohub,2013-01-15 12:29:00,
2013-01-15 07:34:00,26.8,13.6,28.54,North,0,11.0,11.0,57,0.00,,,0.00,meteohub,2013-01-15 12:34:00,
2013-01-15 07:39:00,27.0,13.8,28.54,North,0,7.0,11.0,57,0.00,,,0.00,meteohub,2013-01-15 12:39:00,
2013-01-15 07:44:00,26.8,13.6,28.53,North,0,9.0,11.0,57,0.00,,,0.00,meteohub,2013-01-15 12:44:00,
2013-01-15 07:49:00,27.0,13.8,28.53,NW,315,4.0,11.0,57,0.00,,,0.00,meteohub,2013-01-15 12:49:00,
2013-01-15 07:54:00,27.0,14.2,28.54,NW,315,4.0,9.0,58,0.00,,,0.00,meteohub,2013-01-15 12:54:00,
2013-01-15 08:00:00,27.0,13.8,28.54,NW,315,4.0,9.0,57,0.00,,,0.00,meteohub,2013-01-15 13:00:00,
2013-01-15 08:05:00,27.0,13.8,28.54,NW,315,5.0,8.0,57,0.00,,,0.00,meteohub,2013-01-15 13:05:00,
2013-01-15 08:10:00,27.0,13.8,28.54,North,0,4.0,8.0,57,0.00,,,0.00,meteohub,2013-01-15 13:10:00,
2013-01-15 08:15:00,27.1,14.0,28.54,North,0,6.0,8.0,57,0.00,,,0.00,meteohub,2013-01-15 13:15:00,
2013-01-15 08:20:00,27.1,14.0,28.54,North,0,4.0,6.0,57,0.00,,,0.00,meteohub,2013-01-15 13:20:00,
2013-01-15 08:25:00,27.3,14.2,28.55,North,0,5.0,7.0,57,0.00,,,0.00,meteohub,2013-01-15 13:25:00,
2013-01-15 08:30:00,27.3,14.2,28.55,NW,315,5.0,7.0,57,0.00,,,0.00,meteohub,2013-01-15 13:30:00,
2013-01-15 08:35:00,27.5,14.2,28.56,NW,315,4.0,8.0,57,0.00,,,0.00,meteohub,2013-01-15 13:35:00,
2013-01-15 08:40:00,27.5,13.8,28.56,North,0,4.0,8.0,56,0.00,,,0.00,meteohub,2013-01-15 13:40:00,
2013-01-15 08:45:00,27.7,14.4,28.56,NW,315,6.0,8.0,57,0.00,,,0.00,meteohub,2013-01-15 13:45:00,
2013-01-15 08:50:00,27.7,14.0,28.57,North,0,5.0,8.0,56,0.00,,,0.00,meteohub,2013-01-15 13:50:00,
2013-01-15 08:55:00,27.7,14.0,28.58,NW,315,3.0,7.0,56,0.00,,,0.00,meteohub,2013-01-15 13:55:00,
2013-01-15 09:00:00,28.0,14.4,28.58,South,180,3.0,7.0,56,0.00,,,0.00,meteohub,2013-01-15 14:00:00,
2013-01-15 09:06:00,28.0,14.7,28.58,NE,45,4.0,6.0,57,0.00,,,0.00,meteohub,2013-01-15 14:06:00,
2013-01-15 09:11:00,28.0,14.0,28.58,North,0,8.0,8.0,55,0.00,,,0.00,meteohub,2013-01-15 14:11:00,
2013-01-15 09:16:00,28.0,14.0,28.57,North,0,4.0,8.0,55,0.00,,,0.00,meteohub,2013-01-15 14:16:00,
2013-01-15 09:21:00,28.2,14.2,28.57,North,0,4.0,8.0,55,0.00,,,0.00,meteohub,2013-01-15 14:21:00,
2013-01-15 09:26:00,28.4,16.0,28.57,NW,315,3.0,8.0,59,0.00,,,0.00,meteohub,2013-01-15 14:26:00,
2013-01-15 09:31:00,28.6,15.6,28.58,NW,315,8.0,8.0,58,0.00,,,0.00,meteohub,2013-01-15 14:31:00,
2013-01-15 09:36:00,28.6,15.3,28.57,North,0,4.0,8.0,57,0.00,,,0.00,meteohub,2013-01-15 14:36:00,
2013-01-15 09:41:00,28.8,15.4,28.57,North,0,4.0,8.0,57,0.00,,,0.00,meteohub,2013-01-15 14:41:00,
2013-01-15 09:46:00,29.3,16.3,28.57,NW,315,2.0,8.0,58,0.00,,,0.00,meteohub,2013-01-15 14:46:00,
2013-01-15 09:51:00,29.7,16.3,28.57,North,0,3.0,4.0,57,0.00,,,0.00,meteohub,2013-01-15 14:51:00,
2013-01-15 09:56:00,30.2,16.0,28.58,North,0,5.0,6.0,55,0.00,,,0.00,meteohub,2013-01-15 14:56:00,
2013-01-15 10:01:00,30.4,15.8,28.58,NW,315,4.0,6.0,54,0.00,,,0.00,meteohub,2013-01-15 15:01:00,
2013-01-15 10:07:00,30.2,15.6,28.58,North,0,4.0,7.0,54,0.00,,,0.00,meteohub,2013-01-15 15:07:00,
2013-01-15 10:12:00,30.0,15.8,28.58,NW,315,5.0,7.0,55,0.00,,,0.00,meteohub,2013-01-15 15:12:00,
2013-01-15 10:17:00,29.7,15.4,28.57,NW,315,8.0,8.0,55,0.00,,,0.00,meteohub,2013-01-15 15:17:00,
2013-01-15 10:22:00,28.9,14.7,28.57,NW,315,4.0,8.0,55,0.00,,,0.00,meteohub,2013-01-15 15:22:00,
2013-01-15 10:27:00,28.9,14.7,28.57,North,0,5.0,8.0,55,0.00,,,0.00,meteohub,2013-01-15 15:27:00,
2013-01-15 10:32:00,28.8,14.7,28.57,North,0,5.0,8.0,55,0.00,,,0.00,meteohub,2013-01-15 15:32:00,
2013-01-15 10:37:00,28.9,14.7,28.57,NE,45,5.0,8.0,55,0.00,,,0.00,meteohub,2013-01-15 15:37:00,
2013-01-15 10:42:00,29.1,14.9,28.56,North,0,6.0,8.0,55,0.00,,,0.00,meteohub,2013-01-15 15:42:00,
2013-01-15 10:47:00,29.3,15.1,28.56,West,270,2.0,7.0,55,0.00,,,0.00,meteohub,2013-01-15 15:47:00,
2013-01-15 10:52:00,29.7,15.4,28.56,NW,315,3.0,7.0,55,0.00,,,0.00,meteohub,2013-01-15 15:52:00,
2013-01-15 10:57:00,29.8,15.6,28.56,North,0,6.0,7.0,55,0.00,,,0.00,meteohub,2013-01-15 15:57:00,
2013-01-15 11:02:00,29.5,15.3,28.56,North,0,5.0,8.0,55,0.00,,,0.00,meteohub,2013-01-15 16:02:00,
2013-01-15 11:07:00,29.7,15.4,28.57,West,270,2.0,8.0,55,0.00,,,0.00,meteohub,2013-01-15 16:07:00,
2013-01-15 11:12:00,30.2,15.6,28.57,NW,315,2.0,8.0,54,0.00,,,0.00,meteohub,2013-01-15 16:12:00,
2013-01-15 11:17:00,30.4,15.3,28.57,North,0,5.0,5.0,53,0.00,,,0.00,meteohub,2013-01-15 16:17:00,
2013-01-15 11:22:00,30.2,15.1,28.56,North,0,6.0,8.0,53,0.00,,,0.00,meteohub,2013-01-15 16:22:00,
2013-01-15 11:27:00,30.0,14.9,28.56,NE,45,4.0,8.0,53,0.00,,,0.00,meteohub,2013-01-15 16:27:00,
2013-01-15 11:32:00,29.7,14.5,28.56,North,0,6.0,8.0,53,0.00,,,0.00,meteohub,2013-01-15 16:32:00,
2013-01-15 11:37:00,29.7,15.1,28.55,NW,315,4.0,8.0,54,0.00,,,0.00,meteohub,2013-01-15 16:37:00,
2013-01-15 11:42:00,29.7,15.1,28.54,NW,315,1.0,8.0,54,0.00,,,0.00,meteohub,2013-01-15 16:42:00,
2013-01-15 11:47:00,30.0,15.4,28.54,North,0,4.0,6.0,54,0.00,,,0.00,meteohub,2013-01-15 16:47:00,
2013-01-15 11:52:00,30.0,15.4,28.53,North,0,6.0,6.0,54,0.00,,,0.00,meteohub,2013-01-15 16:52:00,
2013-01-15 11:57:00,30.0,15.4,28.54,NW,315,3.0,6.0,54,0.00,,,0.00,meteohub,2013-01-15 16:57:00,
2013-01-15 12:02:00,30.2,15.1,28.54,West,270,4.0,6.0,53,0.00,,,0.00,meteohub,2013-01-15 17:02:00,
2013-01-15 12:07:00,30.4,14.9,28.54,North,0,6.0,6.0,52,0.00,,,0.00,meteohub,2013-01-15 17:07:00,
2013-01-15 12:12:00,30.2,14.7,28.53,NNW,338,7.0,7.0,52,0.00,,,0.00,meteohub,2013-01-15 17:12:00,
2013-01-15 12:17:00,30.4,14.9,28.54,NW,315,4.0,7.0,52,0.00,,,0.00,meteohub,2013-01-15 17:17:00,
2013-01-15 12:22:00,30.7,15.3,28.54,North,0,3.0,7.0,52,0.00,,,0.00,meteohub,2013-01-15 17:22:00,
2013-01-15 12:27:00,30.9,15.4,28.54,North,0,3.0,7.0,52,0.00,,,0.00,meteohub,2013-01-15 17:27:00,
2013-01-15 12:32:00,30.9,15.4,28.53,North,0,7.0,9.0,52,0.00,,,0.00,meteohub,2013-01-15 17:32:00,
2013-01-15 12:37:00,30.6,15.1,28.53,NNE,23,3.0,9.0,52,0.00,,,0.00,meteohub,2013-01-15 17:37:00,
2013-01-15 12:42:00,31.1,15.4,28.52,NNW,338,4.0,9.0,52,0.00,,,0.00,meteohub,2013-01-15 17:42:00,
2013-01-15 12:47:00,31.3,15.6,28.52,NW,315,2.0,9.0,52,0.00,,,0.00,meteohub,2013-01-15 17:47:00,
2013-01-15 12:52:00,31.3,15.3,28.52,NW,315,4.0,7.0,51,0.00,,,0.00,meteohub,2013-01-15 17:52:00,
2013-01-15 12:57:00,31.1,15.1,28.52,NW,315,7.0,8.0,51,0.00,,,0.00,meteohub,2013-01-15 17:57:00,
2013-01-15 13:02:00,30.9,15.4,28.51,NW,315,4.0,8.0,52,0.00,,,0.00,meteohub,2013-01-15 18:02:00,
2013-01-15 13:07:00,31.1,15.4,28.51,East,90,6.0,8.0,52,0.00,,,0.00,meteohub,2013-01-15 18:07:00,
2013-01-15 13:12:00,31.3,15.3,28.51,NW,315,4.0,7.0,51,0.00,,,0.00,meteohub,2013-01-15 18:12:00,
2013-01-15 13:17:00,31.6,15.6,28.50,NE,45,4.0,7.0,51,0.00,,,0.00,meteohub,2013-01-15 18:17:00,
2013-01-15 13:22:00,31.3,15.3,28.51,North,0,6.0,7.0,51,0.00,,,0.00,meteohub,2013-01-15 18:22:00,
2013-01-15 13:27:00,31.1,15.1,28.51,West,270,3.0,7.0,51,0.00,,,0.00,meteohub,2013-01-15 18:27:00,
2013-01-15 13:32:00,31.3,15.3,28.51,NNW,338,4.0,7.0,51,0.00,,,0.00,meteohub,2013-01-15 18:32:00,
2013-01-15 13:37:00,31.5,15.4,28.51,NW,315,4.0,7.0,51,0.00,,,0.00,meteohub,2013-01-15 18:37:00,
2013-01-15 13:42:00,31.8,15.8,28.51,NW,315,5.0,7.0,51,0.00,,,0.00,meteohub,2013-01-15 18:42:00,
2013-01-15 13:47:00,32.0,15.4,28.51,NW,315,7.0,10.0,50,0.00,,,0.00,meteohub,2013-01-15 18:47:00,
2013-01-15 13:52:00,31.6,15.6,28.51,North,0,3.0,10.0,51,0.00,,,0.00,meteohub,2013-01-15 18:52:00,
2013-01-15 13:57:00,31.8,15.8,28.51,West,270,4.0,10.0,51,0.00,,,0.00,meteohub,2013-01-15 18:57:00,
2013-01-15 14:02:00,31.8,15.3,28.50,NW,315,3.0,10.0,50,0.00,,,0.00,meteohub,2013-01-15 19:02:00,
2013-01-15 14:07:00,31.8,15.3,28.50,NW,315,3.0,6.0,50,0.00,,,0.00,meteohub,2013-01-15 19:07:00,
2013-01-15 14:12:00,31.8,15.8,28.50,NE,45,3.0,6.0,51,0.00,,,0.00,meteohub,2013-01-15 19:12:00,
2013-01-15 14:17:00,31.6,15.6,28.49,NW,315,2.0,6.0,51,0.00,,,0.00,meteohub,2013-01-15 19:17:00,
2013-01-15 14:22:00,31.8,15.8,28.49,North,0,2.0,4.0,51,0.00,,,0.00,meteohub,2013-01-15 19:22:00,
2013-01-15 14:27:00,32.0,15.4,28.48,North,0,1.0,4.0,50,0.00,,,0.00,meteohub,2013-01-15 19:27:00,
2013-01-15 14:32:00,32.2,15.6,28.49,NW,315,4.0,4.0,50,0.00,,,0.00,meteohub,2013-01-15 19:32:00,
2013-01-15 14:37:00,32.0,15.1,28.49,North,0,4.0,4.0,49,0.00,,,0.00,meteohub,2013-01-15 19:37:00,
2013-01-15 14:42:00,31.8,15.8,28.49,North,0,5.0,5.0,51,0.00,,,0.00,meteohub,2013-01-15 19:42:00,
2013-01-15 14:47:00,31.6,15.6,28.50,North,0,8.0,8.0,51,0.00,,,0.00,meteohub,2013-01-15 19:47:00,
2013-01-15 14:52:00,31.6,15.6,28.49,North,0,4.0,8.0,51,0.00,,,0.00,meteohub,2013-01-15 19:52:00,
2013-01-15 14:57:00,31.8,15.8,28.49,North,0,5.0,8.0,51,0.00,,,0.00,meteohub,2013-01-15 19:57:00,
2013-01-15 15:02:00,31.6,15.6,28.49,NW,315,5.0,8.0,51,0.00,,,0.00,meteohub,2013-01-15 20:02:00,
2013-01-15 15:07:00,31.6,15.6,28.49,NW,315,2.0,5.0,51,0.00,,,0.00,meteohub,2013-01-15 20:07:00,
2013-01-15 15:12:00,31.8,15.8,28.50,NW,315,3.0,5.0,51,0.00,,,0.00,meteohub,2013-01-15 20:12:00,
2013-01-15 15:17:00,31.6,15.6,28.50,North,0,4.0,5.0,51,0.00,,,0.00,meteohub,2013-01-15 20:17:00,
2013-01-15 15:22:00,31.8,15.8,28.50,West,270,2.0,5.0,51,0.00,,,0.00,meteohub,2013-01-15 20:22:00,
2013-01-15 15:27:00,31.8,15.8,28.51,North,0,3.0,5.0,51,0.00,,,0.00,meteohub,2013-01-15 20:27:00,
2013-01-15 15:32:00,31.8,15.8,28.51,North,0,2.0,6.0,51,0.00,,,0.00,meteohub,2013-01-15 20:32:00,
2013-01-15 15:37:00,31.8,15.8,28.51,North,0,3.0,6.0,51,0.00,,,0.00,meteohub,2013-01-15 20:37:00,
2013-01-15 15:42:00,31.8,15.8,28.51,NW,315,2.0,6.0,51,0.00,,,0.00,meteohub,2013-01-15 20:42:00,
2013-01-15 15:47:00,31.8,15.8,28.51,NW,315,4.0,6.0,51,0.00,,,0.00,meteohub,2013-01-15 20:47:00,
2013-01-15 15:52:00,31.6,15.6,28.51,North,0,6.0,6.0,51,0.00,,,0.00,meteohub,2013-01-15 20:52:00,
2013-01-15 15:57:00,31.6,15.6,28.51,North,0,4.0,7.0,51,0.00,,,0.00,meteohub,2013-01-15 20:57:00,
2013-01-15 16:02:00,31.6,15.6,28.52,North,0,4.0,7.0,51,0.00,,,0.00,meteohub,2013-01-15 21:02:00,
2013-01-15 16:07:00,31.6,15.6,28.51,NW,315,4.0,7.0,51,0.00,,,0.00,meteohub,2013-01-15 21:07:00,
2013-01-15 16:12:00,31.5,15.8,28.51,North,0,2.0,4.0,52,0.00,,,0.00,meteohub,2013-01-15 21:12:00,
2013-01-15 16:17:00,31.3,15.6,28.51,NW,315,2.0,4.0,52,0.00,,,0.00,meteohub,2013-01-15 21:17:00,
2013-01-15 16:22:00,31.3,15.6,28.51,NW,315,3.0,4.0,52,0.00,,,0.00,meteohub,2013-01-15 21:22:00,
2013-01-15 16:27:00,31.1,15.4,28.51,NW,315,4.0,4.0,52,0.00,,,0.00,meteohub,2013-01-15 21:27:00,
2013-01-15 16:32:00,30.9,15.4,28.51,NW,315,2.0,4.0,52,0.00,,,0.00,meteohub,2013-01-15 21:32:00,
2013-01-15 16:37:00,30.9,15.4,28.51,North,0,4.0,4.0,52,0.00,,,0.00,meteohub,2013-01-15 21:37:00,
2013-01-15 16:42:00,30.9,15.4,28.51,NW,315,4.0,4.0,52,0.00,,,0.00,meteohub,2013-01-15 21:42:00,
2013-01-15 16:47:00,30.7,15.3,28.51,North,0,3.0,4.0,52,0.00,,,0.00,meteohub,2013-01-15 21:47:00,
2013-01-15 16:52:00,30.6,15.4,28.51,North,0,2.0,4.0,53,0.00,,,0.00,meteohub,2013-01-15 21:52:00,
2013-01-15 16:57:00,30.6,15.4,28.50,North,0,3.0,4.0,53,0.00,,,0.00,meteohub,2013-01-15 21:57:00,
2013-01-15 17:02:00,30.4,15.3,28.50,ENE,68,1.0,4.0,53,0.00,,,0.00,meteohub,2013-01-15 22:02:00,
2013-01-15 17:07:00,30.4,15.3,28.50,North,0,2.0,3.0,53,0.00,,,0.00,meteohub,2013-01-15 22:07:00,
2013-01-15 17:12:00,30.2,15.1,28.51,North,0,3.0,3.0,53,0.00,,,0.00,meteohub,2013-01-15 22:12:00,
2013-01-15 17:17:00,30.2,15.1,28.51,NW,315,3.0,4.0,53,0.00,,,0.00,meteohub,2013-01-15 22:17:00,
2013-01-15 17:22:00,30.0,15.8,28.51,NW,315,2.0,4.0,55,0.00,,,0.00,meteohub,2013-01-15 22:22:00,
2013-01-15 17:27:00,29.8,15.6,28.51,NW,315,2.0,4.0,55,0.00,,,0.00,meteohub,2013-01-15 22:27:00,
2013-01-15 17:32:00,29.7,15.4,28.52,NW,315,2.0,4.0,55,0.00,,,0.00,meteohub,2013-01-15 22:32:00,
2013-01-15 17:37:00,29.7,15.4,28.51,NW,315,1.0,3.0,55,0.00,,,0.00,meteohub,2013-01-15 22:37:00,
2013-01-15 17:42:00,29.5,15.8,28.52,NW,315,2.0,2.0,56,0.00,,,0.00,meteohub,2013-01-15 22:42:00,
2013-01-15 17:47:00,29.3,15.6,28.52,North,0,2.0,4.0,56,0.00,,,0.00,meteohub,2013-01-15 22:47:00,
2013-01-15 17:52:00,29.1,15.8,28.51,North,0,4.0,4.0,57,0.00,,,0.00,meteohub,2013-01-15 22:52:00,
2013-01-15 17:57:00,29.1,15.8,28.52,North,0,2.0,4.0,57,0.00,,,0.00,meteohub,2013-01-15 22:57:00,
2013-01-15 18:02:00,29.1,15.8,28.52,NW,315,4.0,4.0,57,0.00,,,0.00,meteohub,2013-01-15 23:02:00,
2013-01-15 18:07:00,29.1,15.8,28.52,NW,315,2.0,4.0,57,0.00,,,0.00,meteohub,2013-01-15 23:07:00,
2013-01-15 18:12:00,28.9,15.6,28.52,NW,315,2.0,4.0,57,0.00,,,0.00,meteohub,2013-01-15 23:12:00,
2013-01-15 18:18:00,28.9,15.6,28.52,North,0,5.0,5.0,57,0.00,,,0.00,meteohub,2013-01-15 23:18:00,
2013-01-15 18:23:00,29.1,15.8,28.51,SW,225,5.0,6.0,57,0.00,,,0.00,meteohub,2013-01-15 23:23:00,
2013-01-15 18:28:00,29.1,15.8,28.52,North,0,6.0,6.0,57,0.00,,,0.00,meteohub,2013-01-15 23:28:00,
2013-01-15 18:33:00,28.9,15.6,28.53,NW,315,3.0,7.0,57,0.00,,,0.00,meteohub,2013-01-15 23:33:00,
2013-01-15 18:38:00,28.9,15.6,28.53,North,0,4.0,7.0,57,0.00,,,0.00,meteohub,2013-01-15 23:38:00,
2013-01-15 18:43:00,28.9,15.6,28.53,NW,315,4.0,7.0,57,0.00,,,0.00,meteohub,2013-01-15 23:43:00,
2013-01-15 18:48:00,28.9,15.6,28.53,North,0,6.0,8.0,57,0.00,,,0.00,meteohub,2013-01-15 23:48:00,
2013-01-15 18:53:00,28.9,15.6,28.52,North,0,6.0,8.0,57,0.00,,,0.00,meteohub,2013-01-15 23:53:00,
2013-01-15 18:58:00,28.9,15.6,28.52,NW,315,5.0,8.0,57,0.00,,,0.00,meteohub,2013-01-15 23:58:00,
2013-01-15 19:03:00,28.8,15.4,28.51,North,0,5.0,8.0,57,0.00,,,0.00,meteohub,2013-01-16 00:03:00,
2013-01-15 19:08:00,28.8,15.8,28.52,North,0,5.0,8.0,58,0.00,,,0.00,meteohub,2013-01-16 00:08:00,
2013-01-15 19:13:00,28.6,15.6,28.52,NW,315,5.0,8.0,58,0.00,,,0.00,meteohub,2013-01-16 00:13:00,
2013-01-15 19:18:00,28.6,15.6,28.52,NW,315,3.0,8.0,58,0.00,,,0.00,meteohub,2013-01-16 00:18:00,
2013-01-15 19:24:00,28.6,15.6,28.51,NW,315,3.0,8.0,58,0.00,,,0.00,meteohub,2013-01-16 00:24:00,
2013-01-15 19:29:00,28.6,15.6,28.51,North,0,4.0,6.0,58,0.00,,,0.00,meteohub,2013-01-16 00:29:00,
2013-01-15 19:34:00,28.6,15.6,28.51,West,270,3.0,6.0,58,0.00,,,0.00,meteohub,2013-01-16 00:34:00,
2013-01-15 19:39:00,28.6,15.6,28.51,NW,315,2.0,6.0,58,0.00,,,0.00,meteohub,2013-01-16 00:39:00,
2013-01-15 19:44:00,28.6,15.6,28.50,North,0,4.0,5.0,58,0.00,,,0.00,meteohub,2013-01-16 00:44:00,
2013-01-15 19:49:00,28.4,15.4,28.49,North,0,2.0,5.0,58,0.00,,,0.00,meteohub,2013-01-16 00:49:00,
2013-01-15 19:54:00,28.4,15.4,28.49,North,0,3.0,5.0,58,0.00,,,0.00,meteohub,2013-01-16 00:54:00,
2013-01-15 19:59:00,28.4,15.4,28.49,North,0,2.0,5.0,58,0.00,,,0.00,meteohub,2013-01-16 00:59:00,
2013-01-15 20:04:00,28.4,15.4,28.49,North,0,4.0,5.0,58,0.00,,,0.00,meteohub,2013-01-16 01:04:00,
2013-01-15 20:09:00,28.2,13.6,28.50,North,0,4.0,7.0,54,0.00,,,0.00,meteohub,2013-01-16 01:09:00,
2013-01-15 20:14:00,28.2,13.6,28.50,North,0,4.0,7.0,54,0.00,,,0.00,meteohub,2013-01-16 01:14:00,
2013-01-15 20:19:00,28.2,13.6,28.50,North,0,7.0,7.0,54,0.00,,,0.00,meteohub,2013-01-16 01:19:00,
2013-01-15 20:25:00,28.2,13.6,28.50,NW,315,4.0,8.0,54,0.00,,,0.00,meteohub,2013-01-16 01:25:00,
2013-01-15 20:30:00,28.2,14.2,28.49,North,0,4.0,8.0,55,0.00,,,0.00,meteohub,2013-01-16 01:30:00,
2013-01-15 20:35:00,28.2,14.2,28.49,NW,315,9.0,9.0,55,0.00,,,0.00,meteohub,2013-01-16 01:35:00,
2013-01-15 20:40:00,28.0,14.0,28.49,North,0,5.0,9.0,55,0.00,,,0.00,meteohub,2013-01-16 01:40:00,
2013-01-15 20:45:00,28.0,14.0,28.49,North,0,6.0,9.0,55,0.00,,,0.00,meteohub,2013-01-16 01:45:00,
2013-01-15 20:50:00,28.0,14.0,28.48,North,0,8.0,9.0,55,0.00,,,0.00,meteohub,2013-01-16 01:50:00,
2013-01-15 20:55:00,27.9,13.8,28.48,North,0,5.0,8.0,55,0.00,,,0.00,meteohub,2013-01-16 01:55:00,
2013-01-15 21:00:00,27.9,13.8,28.48,NE,45,4.0,8.0,55,0.00,,,0.00,meteohub,2013-01-16 02:00:00,
2013-01-15 21:05:00,27.9,13.8,28.48,North,0,8.0,8.0,55,0.00,,,0.00,meteohub,2013-01-16 02:05:00,
2013-01-15 21:10:00,27.9,13.8,28.48,NE,45,3.0,8.0,55,0.00,,,0.00,meteohub,2013-01-16 02:10:00,
2013-01-15 21:15:00,27.7,13.6,28.48,North,0,5.0,8.0,55,0.00,,,0.00,meteohub,2013-01-16 02:15:00,
2013-01-15 21:21:00,27.7,13.6,28.47,North,0,3.0,8.0,55,0.00,,,0.00,meteohub,2013-01-16 02:21:00,
2013-01-15 21:26:00,27.7,13.6,28.47,NW,315,3.0,6.0,55,0.00,,,0.00,meteohub,2013-01-16 02:26:00,
2013-01-15 21:31:00,27.7,13.6,28.47,NNE,23,6.0,6.0,55,0.00,,,0.00,meteohub,2013-01-16 02:31:00,
2013-01-15 21:36:00,27.5,13.8,28.46,North,0,3.0,6.0,56,0.00,,,0.00,meteohub,2013-01-16 02:36:00,
2013-01-15 21:41:00,27.5,13.8,28.46,North,0,4.0,6.0,56,0.00,,,0.00,meteohub,2013-01-16 02:41:00,
2013-01-15 21:46:00,27.5,13.8,28.47,North,0,4.0,6.0,56,0.00,,,0.00,meteohub,2013-01-16 02:46:00,
2013-01-15 21:51:00,27.5,13.8,28.46,North,0,2.0,6.0,56,0.00,,,0.00,meteohub,2013-01-16 02:51:00,
2013-01-15 21:56:00,27.5,13.8,28.46,NE,45,3.0,6.0,56,0.00,,,0.00,meteohub,2013-01-16 02:56:00,
2013-01-15 22:01:00,27.5,13.8,28.46,North,0,3.0,4.0,56,0.00,,,0.00,meteohub,2013-01-16 03:01:00,
2013-01-15 22:06:00,27.3,14.2,28.46,North,0,4.0,5.0,57,0.00,,,0.00,meteohub,2013-01-16 03:06:00,
2013-01-15 22:11:00,27.3,14.2,28.46,North,0,4.0,5.0,57,0.00,,,0.00,meteohub,2013-01-16 03:11:00,
2013-01-15 22:17:00,27.3,14.2,28.47,NW,315,5.0,5.0,57,0.00,,,0.00,meteohub,2013-01-16 03:17:00,
2013-01-15 22:22:00,27.3,14.2,28.46,North,0,5.0,6.0,57,0.00,,,0.00,meteohub,2013-01-16 03:22:00,
2013-01-15 22:27:00,27.3,14.2,28.47,North,0,2.0,6.0,57,0.00,,,0.00,meteohub,2013-01-16 03:27:00,
2013-01-15 22:32:00,27.3,14.5,28.46,North,0,4.0,6.0,58,0.00,,,0.00,meteohub,2013-01-16 03:32:00,
2013-01-15 22:37:00,27.3,14.5,28.46,NNE,23,5.0,8.0,58,0.00,,,0.00,meteohub,2013-01-16 03:37:00,
2013-01-15 22:42:00,27.1,14.4,28.46,NW,315,5.0,8.0,58,0.00,,,0.00,meteohub,2013-01-16 03:42:00,
2013-01-15 22:47:00,27.1,14.4,28.46,ENE,68,3.0,8.0,58,0.00,,,0.00,meteohub,2013-01-16 03:47:00,
2013-01-15 22:52:00,27.1,14.4,28.46,North,0,2.0,8.0,58,0.00,,,0.00,meteohub,2013-01-16 03:52:00,
2013-01-15 22:57:00,27.1,14.4,28.47,WNW,293,5.0,8.0,58,0.00,,,0.00,meteohub,2013-01-16 03:57:00,
2013-01-15 23:02:00,27.1,14.4,28.47,NNW,338,5.0,8.0,58,0.00,,,0.00,meteohub,2013-01-16 04:02:00,
2013-01-15 23:07:00,27.1,14.4,28.48,North,0,5.0,8.0,58,0.00,,,0.00,meteohub,2013-01-16 04:07:00,
2013-01-15 23:12:00,27.1,14.4,28.47,NNW,338,7.0,8.0,58,0.00,,,0.00,meteohub,2013-01-16 04:12:00,
2013-01-15 23:17:00,27.1,14.4,28.47,NW,315,4.0,8.0,58,0.00,,,0.00,meteohub,2013-01-16 04:17:00,
2013-01-15 23:22:00,27.1,14.4,28.47,NW,315,5.0,8.0,58,0.00,,,0.00,meteohub,2013-01-16 04:22:00,
2013-01-15 23:27:00,27.1,14.4,28.47,NNW,338,6.0,8.0,58,0.00,,,0.00,meteohub,2013-01-16 04:27:00,
2013-01-15 23:32:00,27.1,14.4,28.47,NW,315,2.0,7.0,58,0.00,,,0.00,meteohub,2013-01-16 04:32:00,
2013-01-15 23:37:00,27.1,14.4,28.48,North,0,4.0,6.0,58,0.00,,,0.00,meteohub,2013-01-16 04:37:00,
2013-01-15 23:42:00,27.1,14.4,28.47,West,270,2.0,6.0,58,0.00,,,0.00,meteohub,2013-01-16 04:42:00,
2013-01-15 23:47:00,27.1,14.4,28.47,North,0,3.0,4.0,58,0.00,,,0.00,meteohub,2013-01-16 04:47:00,
2013-01-15 23:52:00,27.1,14.4,28.46,NNW,338,3.0,4.0,58,0.00,,,0.00,meteohub,2013-01-16 04:52:00,
2013-01-15 23:57:00,27.1,14.4,28.45,North,0,4.0,4.0,58,0.00,,,0.00,meteohub,2013-01-16 04:57:00,